Hlavní strana
METAR-TAF:

METAR-TAF

Letiště :

Johannesburg, Jihoafrická republika

zeměpisná šířka: 26-09S, zeměpisná délka: 28-00E, výška: 1626 m

Aktuální stav počasí

Zpráva byla vytvořena před 1 hodinou a 7 minutami, v 06:00 UTC
Východní vítr 2 kt
Teplota 14°C
Vlhkost vzduchu 67%
Tlak 1024 hPa

METAR: FAJB 200600Z AUTO 10002KT //// // ////// 14/08 Q1024

Čas: 09:07 (07:07 UTC)


TAF: chybějící

Stav a předpovědi počasí z více než 4 000 letišť (zprávy METAR a TAF).

Červené a žluté tečky na mapě představují dostupné meteorologické stanice.

Když kurzor umístíte na tečku, zobrazí se název stanice.

Pak kliknutím zobrazíte stav a předpověď počasí.

Chcete-li změnit mapu, kliknutím na zelené tlačítko se znaménkem +mapu přiblížíte, kliknutím na zelené tlačítko se znaménkem – mapu oddálíte a kliknutím na zelené šipky přejdete na sousední mapy.


METAR-TAF: